Seatac, Washington, United States
Lat: 47.45N, Lon: 122.32W
Wx Zone: WAZ508
Local Info
Past Weather Observations for Today

NOTE: This archive is for the closest National Weather Service station to Seatac. Information may differ from the station used for current weather conditions.

Click here for Long-term Archive

Time Weather Temperature Dewpoint Humidity Pressure Winds Precip Visibility
17:53
Mostly Cloudy
63°F / 17°C 46°F / 8°C 56% 30.18 in
(1022 mb)
Calm - 10SM
16:53
Partly Cloudy
63°F / 17°C 46°F / 8°C 56% 30.18 in
(1022 mb)
SW 3.5 mph
(SW 6 kph)
- 10SM
15:53
Partly Cloudy
64°F / 18°C 48°F / 9°C 56% 30.18 in
(1022 mb)
SW 8.1 mph
(SW 13 kph)
- 10SM
14:53
Partly Cloudy
63°F / 17°C 48°F / 9°C 59% 30.18 in
(1022 mb)
SW 5.8 mph
(SW 9 kph)
- 10SM
13:53
Partly Cloudy
63°F / 17°C 48°F / 9°C 59% 30.21 in
(1023 mb)
SSW 4.6 mph
(SSW 7 kph)
- 10SM
12:53
Partly Cloudy
63°F / 17°C 48°F / 9°C 59% 30.21 in
(1023 mb)
SSW 4.6 mph
(SSW 7 kph)
- 10SM
11:53
Partly Cloudy
61°F / 16°C 48°F / 9°C 63% 30.21 in
(1023 mb)
SSW 6.9 mph
(SSW 11 kph)
- 10SM
11:44
Partly Cloudy
59°F / 15°C 48°F / 9°C 68% 30.21 in
(1023 mb)
Calm - 10SM
10:53
Mostly Cloudy
57°F / 14°C 50°F / 10°C 77% 30.24 in
(1024 mb)
Calm - 10SM
10:45
Mostly Cloudy
57°F / 14°C 48°F / 9°C 72% 30.24 in
(1024 mb)
S 3.5 mph
(S 6 kph)
- 10SM
09:53
Mostly Cloudy
57°F / 14°C 50°F / 10°C 77% 30.24 in
(1024 mb)
S 6.9 mph
(S 11 kph)
- 10SM
09:40
Mostly Cloudy
55°F / 13°C 50°F / 10°C 82% 30.24 in
(1024 mb)
S 3.5 mph
(S 6 kph)
- 10SM
08:53
Overcast
54°F / 12°C 50°F / 10°C 88% 30.24 in
(1024 mb)
SSE 6.9 mph
(SSE 11 kph)
- 10SM
07:53
Mostly Cloudy
54°F / 12°C 50°F / 10°C 88% 30.24 in
(1024 mb)
SW 3.5 mph
(SW 6 kph)
- 10SM
06:53
Partly Cloudy
52°F / 11°C 50°F / 10°C 94% 30.21 in
(1023 mb)
S 3.5 mph
(S 6 kph)
- 10SM
06:50
Partly Cloudy
52°F / 11°C 50°F / 10°C 94% 30.21 in
(1023 mb)
S 4.6 mph
(S 7 kph)
- 10SM
06:11
Overcast
54°F / 12°C 50°F / 10°C 88% 30.21 in
(1023 mb)
S 4.6 mph
(S 7 kph)
- 8SM
05:53
Overcast
54°F / 12°C 50°F / 10°C 88% 30.21 in
(1023 mb)
S 3.5 mph
(S 6 kph)
- 8SM
04:53
Mostly Cloudy
52°F / 11°C 50°F / 10°C 94% 30.21 in
(1023 mb)
SSE 3.5 mph
(SSE 6 kph)
- 10SM
04:32
Mostly Cloudy
52°F / 11°C 48°F / 9°C 88% 30.21 in
(1023 mb)
Calm - 10SM
03:53
Mostly Cloudy
52°F / 11°C 48°F / 9°C 88% 30.21 in
(1023 mb)
SE 4.6 mph
(SE 7 kph)
- 10SM
03:40
Mostly Cloudy
54°F / 12°C 50°F / 10°C 88% 30.21 in
(1023 mb)
Calm - 10SM
02:53
Partly Cloudy
54°F / 12°C 48°F / 9°C 82% 30.21 in
(1023 mb)
Calm - 10SM
01:53
Mostly Cloudy
54°F / 12°C 48°F / 9°C 82% 30.21 in
(1023 mb)
Calm - 10SM
01:28
Mostly Cloudy
54°F / 12°C 48°F / 9°C 82% 30.21 in
(1023 mb)
Calm - 10SM
00:53
Overcast
57°F / 14°C 48°F / 9°C 72% 30.18 in
(1022 mb)
Calm - 10SM
00:23
Overcast
57°F / 14°C 48°F / 9°C 72% 30.18 in
(1022 mb)
E 4.6 mph
(E 7 kph)
- 10SM
Time Weather Temperature Dewpoint Humidity Pressure Winds Precip Visibility


Weather for websites

WeatherForYou.com, LLC is not responsible for any damages or problems caused by this service. Current weather conditions are obtained from the closest station including government and personal stations which may have varying degrees of accuracy. Weather forecasts are derived from the NOAA NDFD. Like all things, this site belongs to Jesus Christ... He just trusts me to maintain it. If you have any questions or comments email webmaster@weatherforyou.com

Copyright © 2014, WeatherForYou.com LLC. All rights reserved.